TimeCDT,TemperatureF,Dew PointF,Humidity,Sea Level PressureIn,VisibilityMPH,Wind Direction,Wind SpeedMPH,Gust SpeedMPH,PrecipitationIn,Events,Conditions,WindDirDegrees,DateUTC
12:54 AM,55.9,50.0,80,29.92,10.0,SE,5.8,-,N/A,,Clear,140,2013-10-11 05:54:00
1:54 AM,55.9,51.1,84,29.94,10.0,SSE,5.8,-,N/A,,Clear,150,2013-10-11 06:54:00
2:54 AM,55.9,51.1,84,29.93,10.0,SE,9.2,-,N/A,,Clear,130,2013-10-11 07:54:00
3:54 AM,55.9,52.0,87,29.92,10.0,SE,11.5,-,N/A,,Clear,140,2013-10-11 08:54:00
4:54 AM,55.9,52.0,87,29.92,10.0,SSE,10.4,-,N/A,,Clear,150,2013-10-11 09:54:00
5:54 AM,55.9,52.0,87,29.93,10.0,SSE,10.4,-,N/A,,Clear,150,2013-10-11 10:54:00
6:54 AM,55.9,52.0,87,29.92,10.0,SSE,9.2,-,N/A,,Clear,150,2013-10-11 11:54:00
7:54 AM,55.9,52.0,87,29.92,10.0,SE,12.7,-,N/A,,Clear,140,2013-10-11 12:54:00
8:54 AM,60.1,54.0,80,29.91,10.0,SSE,15.0,21.9,N/A,,Clear,150,2013-10-11 13:54:00
9:54 AM,63.0,55.9,78,29.89,10.0,SSE,13.8,-,N/A,,Clear,150,2013-10-11 14:54:00
10:54 AM,68.0,57.0,68,29.86,10.0,SE,18.4,-,N/A,,Clear,140,2013-10-11 15:54:00
11:54 AM,71.1,55.9,59,29.83,10.0,SE,23.0,31.1,N/A,,Clear,130,2013-10-11 16:54:00
12:54 PM,73.0,55.0,53,29.81,10.0,SSE,18.4,34.5,N/A,,Clear,150,2013-10-11 17:54:00
1:54 PM,75.0,54.0,48,29.78,10.0,SSE,18.4,36.8,N/A,,Clear,160,2013-10-11 18:54:00
2:54 PM,75.9,53.1,45,29.75,10.0,SSE,21.9,31.1,N/A,,Clear,150,2013-10-11 19:54:00
3:54 PM,75.9,52.0,43,29.75,10.0,SSE,23.0,36.8,N/A,,Clear,160,2013-10-11 20:54:00
4:54 PM,73.9,52.0,46,29.76,10.0,SSE,17.3,25.3,N/A,,Overcast,150,2013-10-11 21:54:00
5:54 PM,73.9,53.1,48,29.75,10.0,SSE,17.3,25.3,N/A,,Overcast,160,2013-10-11 22:54:00
6:54 PM,73.0,54.0,51,29.77,10.0,SSE,16.1,24.2,N/A,,Overcast,150,2013-10-11 23:54:00
7:54 PM,72.0,54.0,53,29.78,10.0,SSE,13.8,-,N/A,,Overcast,160,2013-10-12 00:54:00
8:54 PM,70.0,55.0,59,29.79,10.0,South,16.1,23.0,0.00,Rain,Light Rain,170,2013-10-12 01:54:00
9:54 PM,69.1,54.0,58,29.79,10.0,SSE,11.5,-,0.00,,Mostly Cloudy,160,2013-10-12 02:54:00
10:54 PM,68.0,54.0,61,29.79,10.0,SSE,12.7,-,N/A,,Clear,160,2013-10-12 03:54:00
11:54 PM,66.0,54.0,65,29.79,10.0,South,12.7,-,N/A,,Clear,170,2013-10-12 04:54:00